Location: Palmerston North
(40.3500°S, 175.6170°E)
Time: 01:05:29
(UTC+13:00)

BlueWalker 3 - Visible Passes

Search period start: 11 October 2024 00:00
Search period end: 21 October 2024 00:00
Orbit: 473 x 485 km, 53.2° (Epoch: 09 October)

Date Brightness Start Highest point End Pass type
(mag) Time Alt. Az. Time Alt. Az. Time Alt. Az.
11 Oct 3.7 20:55:44 10° SSW 20:58:47 22° SSE 21:00:18 18° SE visible
11 Oct 4.6 22:33:18 10° SW 22:34:29 19° SW 22:34:29 19° SW visible
12 Oct 3.8 20:27:23 10° SSW 20:30:20 20° SSE 20:33:04 11° ESE visible
12 Oct 3.4 22:04:54 10° SW 22:07:15 35° SW 22:07:15 35° SW visible
13 Oct 3.9 19:59:01 10° SSW 20:01:51 19° SSE 20:04:41 10° ESE visible
13 Oct 2.0 21:36:28 10° SW 21:40:01 74° SSW 21:40:01 74° SSW visible
14 Oct 1.8 21:08:01 10° SW 21:11:52 75° SE 21:12:49 48° ENE visible
15 Oct 2.0 20:39:33 10° SW 20:43:22 66° SE 20:45:38 22° ENE visible
15 Oct 4.6 22:18:39 10° W 22:19:50 14° WNW 22:19:50 14° WNW visible
16 Oct 2.1 20:11:03 10° SW 20:14:50 58° SE 20:18:30 10° ENE visible
16 Oct 4.1 21:49:53 10° W 21:52:28 18° NW 21:52:42 17° NW visible
17 Oct 4.0 21:21:07 10° W 21:23:58 20° NW 21:25:37 15° NNW visible
18 Oct 3.9 20:52:22 10° WSW 20:55:25 23° NW 20:58:27 10° N visible
19 Oct 3.8 20:23:37 10° WSW 20:26:51 26° NW 20:30:03 10° N visible
